Location: Bannatyne
(13.0833°N, 59.5333°W)
Time: 07:22:07
(UTC+00:00)

Vanguard 3 - Pass Details

Date: 24 January 2020
Orbit: 508 x 3263 km, 33.3° (Epoch: 17 February)

Event Time Altitude Azimuth Distance (km) Brightness Sun altitude
Rises 03:06:32 0° 305° (NW) 6,306 11.8 -73.5°
Enters shadow 03:09:46 - 308° (NW) 5,408 11.4 -74.2°
Reaches altitude 10° 03:11:44 10° 311° (NW) 4,849 - -74.7°
Maximum altitude 03:23:16 41° 17° (NNE) 2,037 - -77.2°
Drops below altitude 10° 03:29:58 10° 87° (E) 2,846 - -78.5°
Sets 03:32:13 0° 95° (E) 3,534 - -79.0°
